Miscellaneous Local Product
Issued by NWS Hastings, NE

Home | Current Version | Previous Version | Graphics & Text | Print | Product List | Glossary On
Versions: 1 2 3 4 5 6 7 8 9 10 11 12 13 14 15 16 17 18 19 20 21 22 23 24 25 26 27 28 29 30 31 32 33 34 35 36 37 38 39 40 41 42 43 44 45 46 47 48 49 50
000
AXUS43 KGID 191802
MISGRI

GID CWA HOURLY WEATHER ROUNDUP
NATIONAL WEATHER SERVICE HASTINGS NE
1200 PM CST MON FEB 19 2018

NOTE: "FAIR" INDICATES FEW OR NO CLOUDS BELOW 12,000 FEET WITH NO
SIGNIFICANT WEATHER AND/OR OBSTRUCTIONS TO VISIBILITY.

...SOUTH CENTRAL NEBRASKA...

CITY           SKY/WX    TMP DP  RH WIND       PRES   REMARKS
GRAND ISLAND   LGT SNOW  17  13  84 N16       29.87R FOG     WCI   2
KEARNEY        FLURRIES  16  12  84 N14       29.87R WCI   2
HASTINGS       LGT SNOW  17  13  84 N17       29.87R FOG     WCI   1
ORD            LGT SNOW  14   9  80 N20       29.87F WCI  -3
YORK           MOSUNNY   19  19 100 N13G21    29.85R WCI   7
AURORA         FLURRIES  17  14  86 N14       29.87R WCI   3
LEXINGTON      FLURRIES  16  11  80 N18       29.85F WCI   0
HOLDREGE       LGT SNOW  17  14  90 N15       29.84F WCI   2
HEBRON         CLOUDY    22  19  87 N10G18    29.86S WCI  11

...NEBRASKA PANHANDLE...

CITY           SKY/WX    TMP DP  RH WIND       PRES   REMARKS
CHADRON        LGT SNOW   4  -3  73 NE16      29.94F WCI -15
ALLIANCE       CLOUDY     4   0  83 N17       29.83S FOG     WCI -16
SCOTTSBLUFF    LGT SNOW   7   0  73 N8        29.83F WCI  -6
SIDNEY         LGT SNOW   8   4  83 N12       29.77S FOG     WCI  -7

...WESTERN AND NORTH CENTRAL NEBRASKA...

CITY           SKY/WX    TMP DP  RH WIND       PRES   REMARKS
VALENTINE      LGT SNOW   9   2  73 N14       29.94S WCI  -7
AINSWORTH      LGT SNOW   8   5  84 N18       29.91S WCI -10
ONEILL         LGT SNOW  11   8  85 N23G30    29.90S WCI  -8
BROKEN BOW     FLURRIES  12   7  80 N23G30    29.85F WCI  -7
IMPERIAL       FLURRIES  13   8  81 N15       29.82F WCI  -3
NORTH PLATTE   FLURRIES  13   6  74 N15       29.85F WCI  -3
MCCOOK         LGT SNOW  16  12  84 N13       29.85S FOG     WCI   2

...EASTERN NEBRASKA...

CITY           SKY/WX    TMP DP  RH WIND       PRES   REMARKS
NORFOLK        LGT SNOW  17  15  92 N16G25    29.84S FOG     WCI   2
SO SIOUX CITY  CLOUDY    20  17  88 N17       29.86R WCI   5
TEKAMAH        CLOUDY    22  20  92 N18       29.84R FOG     WCI   7
COLUMBUS       MIX PCPN  20  17  88 N18G24    29.85F WCI   5
ALBION         LGT SNOW  16  11  82 N15G21    29.85F WCI   1
OMAHA EPPLEY   CLOUDY    24  22  91 NW15      29.82R FOG     WCI  11
OFFUTT AFB     CLOUDY    24  22  92 NW10      29.82R WCI  14
MILLARD        CLOUDY    25  22  89 NW9G17    29.83S WCI  15
LINCOLN        FLURRIES  22  19  89 N17       29.85S WCI   8
NEBRASKA CITY  CLOUDY    25  25 100 N15       29.81R FOG     WCI  13
BEATRICE       CLOUDY    25  23  93 N15       29.84R WCI  12
FALLS CITY     CLOUDY    28  26  92 NW16G24   29.80R WCI  16

...NORTHERN KANSAS...

CITY           SKY/WX    TMP DP  RH WIND       PRES   REMARKS
GOODLAND       LGT SNOW  16  11  80 N12       29.78R WCI   3
HILL CITY      CLOUDY    21  14  74 N16       29.86S WCI   7
NORTON         FLURRIES  18  10  73 N13       29.84S WCI   4
PHILLIPSBURG   CLOUDY    21  14  73 N15       29.87F WCI   8
SMITH CENTER   CLOUDY    19  14  79 N15       29.86S WCI   5
BELOIT         CLOUDY    21  18  86 NW12      29.88S WCI   9
HAYS           CLOUDY    25  16  68 N14       29.86R WCI  13
RUSSELL        CLOUDY    25  18  74 N13       29.85R WCI  14
CONCORDIA      CLOUDY    23  18  81 NW17      29.86R WCI   9
SALINA         CLOUDY    28  21  75 N14       29.85F WCI  17
TOPEKA         CLOUDY    33  30  88 NW12      29.81R WCI  24



USA.gov is the U.S. government's official web portal to all federal, state and local government web resources and services.